[Iaude] MPEC R79: 2016 RM17 [a=1.28,e=0.24,i=6.5,H=27.6]

mpec at mpc.eps.harvard.edu mpec at mpc.eps.harvard.edu
Wed Sep 7 18:31:17 EDT 2016


M.P.E.C. 2016-R79                                Issued 2016 Sept. 7, 22:27 UT
 
     The Minor Planet Electronic Circulars contain information on unusual
         minor planets and routine data on comets.  They are published
    on behalf of Division F of the International Astronomical Union by the
          Minor Planet Center, Smithsonian Astrophysical Observatory,
                          Cambridge, MA 02138, U.S.A.

             Prepared using the Tamkin Foundation Computer Network

                              MPC at CFA.HARVARD.EDU
            URL http://www.minorplanetcenter.net/    ISSN 1523-6714


                                   2016 RM17
 
Observations:
     K16R17M* C2016 09 05.30695 21 45 33.63 -09 06 29.7          19.5 VqER079G96
     K16R17M  C2016 09 05.31127 21 45 36.53 -09 04 46.6          19.9 VqER079G96
     K16R17M  C2016 09 05.31555 21 45 39.52 -09 03 01.4          19.5 VqER079G96
     K16R17M  C2016 09 05.31984 21 45 42.42 -09 01 15.0          20.2 VqER079G96
     K16R17M  C2016 09 05.35220 21 46 04.46 -08 48 11.3          20.2 VqER079G96
     K16R17M  C2016 09 05.35358 21 46 05.37 -08 47 38.5          20.6 VqER079G96
     K16R17M  C2016 09 05.35498 21 46 06.33 -08 47 03.7          20.0 VqER079G96
     K16R17M  C2016 09 05.35631 21 46 07.24 -08 46 31.5          20.2 VqER079G96
     K16R17M KC2016 09 05.38306 21 46 26.02 -08 35 43.3          20.3 RoER079291
     K16R17M KC2016 09 05.38431 21 46 26.88 -08 35 13.9          20.3 RoER079291
     K16R17M KC2016 09 05.38559 21 46 27.67 -08 34 44.8          20.4 RoER079291
     K16R17M  C2016 09 06.18402 21 56 33.22 -03 44 39.6          20.3 VqER079G96
     K16R17M  C2016 09 06.19103 21 56 36.95 -03 42 21.0          20.5 VqER079G96
     K16R17M  C2016 09 06.19809 21 56 40.72 -03 40 01.4          20.7 VqER079G96
     K16R17M KC2016 09 06.28241521 57 17.61 -03 13 00.2          20.4 VuER079H21
     K16R17M KC2016 09 06.29008721 57 21.75 -03 10 30.8          20.1 VuER079H21
     K16R17M KC2016 09 07.24682022 06 38.30 +01 27 34.6          21.0 VuER079H21
     K16R17M KC2016 09 07.25108722 06 40.04 +01 28 40.6          21.0 VuER079H21
     K16R17M KC2016 09 07.25636922 06 42.28 +01 30 03.4          21.1 VuER079H21
 
Observer details:
291 LPL/Spacewatch II.  Observer T. H. Bressi.  1.8-m f/2.7 reflector + CCD.
G96 Mt. Lemmon Survey.  Observers R. G. Matheny, D. C. Fuls.  Measurers
    E. J. Christensen, D. C. Fuls, A. R. Gibbs, A. D. Grauer, J. A. Johnson,
    R. A. Kowalski, S. M. Larson, G. J. Leonard, R. G. Matheny, R. L. Seaman,
    F. C. Shelly.  1.5-m reflector + 10K CCD.
H21 Astronomical Research Observatory, Westfield.  Observer R. Holmes.
    Measurers S. Foglia, L. Buzzi, T. Linder, R. Holmes.  0.76-m f/3.0
    astrograph + CCD, 0.81-m f/4.0 astrograph + CCD.
 
Orbital elements:
2016 RM17                                                Earth MOID = 0.0116 AU
Epoch 2016 July 31.0 TT = JDT 2457600.5                 MPC
M   0.67509              (2000.0)            P               Q
n   0.67730193     Peri.  319.94044     +0.52861925     +0.84812330
a   1.2841463      Node   341.88431     -0.74682463     +0.44488815
e   0.2362717      Incl.    6.52520     -0.40350299     +0.28768281
P   1.46           H   27.6           G   0.15           U   7
Residuals in seconds of arc
160905 G96  0.1-  0.3+    160905 G96  0.8-  0.0     160906 H21  0.3+  0.3-
160905 G96 (0.5-  1.8-)   160905 291  0.2+  0.5+    160906 H21  0.2+  0.3-
160905 G96  0.9+  0.8-    160905 291  0.0   0.2-    160907 H21  0.1+  0.2+
160905 G96  0.7+  1.2+    160905 291 (1.5-  1.9-)   160907 H21  0.4-  0.3-
160905 G96  0.0   0.4-    160906 G96  0.2+  0.5+    160907 H21  0.3+  0.2+
160905 G96  0.6-  1.0-    160906 G96  0.3-  0.1+
160905 G96  0.7-  0.0     160906 G96  0.3-  0.0

Ephemeris:
2016 RM17                a,e,i = 1.28, 0.24, 7                   q = 0.9807
Date    TT    R. A. (2000) Decl.     Delta      r     Elong.  Phase     V
2016 08 08    11 46 04.2 -41 31 45   0.08907 0.9837    67.7   107.5    26.3
...
2016 08 23    12 50 02.2 -53 48 38   0.03810 1.0012    73.7   104.2    24.3
...
2016 08 31    18 42 05.3 -57 39 38   0.01703 1.0164   113.6    65.6    21.1
...
2016 09 06    21 54 19.2 -04 43 28   0.02304 1.0301   163.7    16.0    20.3
2016 09 07    22 04 31.4 +00 24 51   0.02583 1.0326   164.0    15.6    20.6
2016 09 08    22 12 43.4 +04 30 47   0.02884 1.0351   163.1    16.5    20.9
...
2016 09 14    22 40 36.5 +17 20 50   0.04927 1.0511   156.1    22.8    22.3
...
2016 09 22    22 56 42.6 +22 55 19   0.07941 1.0748   152.5    25.5    23.4
...
2016 10 07    23 13 00.1 +24 56 16   0.1425  1.1245   149.5    26.9    24.8

A. U. Tomatic                (C) Copyright 2016 MPC           M.P.E.C. 2016-R79




More information about the Iaude mailing list